User: anonymous   Login
Location: Boston
(42.3580°N, 71.0600°W)
Time: 03:40:52
(UTC-05:00)
Language:

YUBILEINY - Orbit

View from above orbital plane
View from above orbital plane
View from above satellite
View from above satellite

Ground track
Ground track

The orbit data is extracted from the following two-line orbital elements,

1 32953U 08025A   18345.02414054  .00000020  00000-0  75656-4 0  9993
2 32953  82.5046 262.6923 0018502 181.2062 178.8974 12.43086844478749
Epoch (UTC): 11 December 2018 00:34:45
Eccentricity: 0.0018502
inclination: 82.5046°
perigee height: 1479 km
apogee height: 1508 km
right ascension of ascending node: 262.6923°
argument of perigee: 181.2062°
revolutions per day: 12.43086844
mean anomaly at epoch: 178.8974°
orbit number at epoch: 47874

The dashed part of the orbit path shows where the satellite is in the earth's shadow,  

DLR